Вернуться в каталог

FENGYUN 1C DEB

АктивенSSO
NORAD 36729·DEBRIS·🇨🇳 China

Запущен May 10, 1999 с Taiyuan Satellite Launch Center

Loading…

Ближайшие Пролёты (ближайшие 24 часа)

TLE

СвежийSource: Space-Track

Эпоха: Sep 14, 2026, 05:17 UTC

1 36729U 99025EBB 26257.22069826  .00000278  00000-0  17817-3 0  9993
2 36729  98.7370 235.8776 0045617 193.7825 166.2104 14.10551843911350

Отслеживайте FENGYUN 1C DEB в реальном времени с AllMySat

Download on the App Store